Regional Weather Roundup
Issued by NWS

Home | Current Version | Previous Version | Text Only | Print | Product List | Glossary Off
Versions: 1 2 3 4 5 6 7 8 9 10 11 12 13 14 15 16 17 18 19 20 21 22 23 24 25 26 27 28 29 30 31 32 33 34 35 36 37 38 39 40 41 42 43 44 45 46 47 48 49 50

000
ASUS45 KTFX 050810
RWRMT
MONTANA REGIONAL WEATHER ROUNDUP
NATIONAL WEATHER SERVICE GREAT FALLS MT
200 AM MDT THU MAY 05 2016

NOTE: "FAIR" INDICATES FEW OR NO CLOUDS BELOW 12000 FEET WITH NO
SIGNIFICANT WEATHER AND/OR OBSTRUCTIONS TO VISIBILITY.

MTZ001>007-043-050900-
WEST OF THE DIVIDE

CITY           SKY/WX    TMP DP  RH WIND       PRES   REMARKS
KALISPELL      MOCLDY    52  46  80 CALM      29.85R
MISSOULA       CLOUDY    54  40  59 E3        29.89S
BUTTE          CLOUDY    49  36  61 SE3       29.99F
MULLAN PASS    CLOUDY    47  38  71 VRB5      30.01R
ANACONDA         N/A     54  34  47 S7        29.97S
DEER LODGE       N/A     46  36  66 CALM      29.96S
EUREKA           N/A     52  45  76 CALM        N/A
HAMILTON         N/A     52  37  58 S3        29.89S
LIBBY            N/A     55  48  76 NW5       29.86S
$$

MTZ008-052>055-050900-
SOUTHWEST MONTANA

CITY           SKY/WX    TMP DP  RH WIND       PRES   REMARKS
BOZEMAN        CLOUDY    52  36  54 SE9       29.96F
DILLON         CLOUDY    53  33  46 SW9       29.97F
ENNIS          CLEAR     50  32  50 S12       30.06F
THREE FORKS      N/A     51  18  27 CALM      29.95S
TWIN BRIDGES     N/A     53  28  38 E5        29.97S
$$

MTZ009-010-012-014-046-048-049-054-050900-
EAST SLOPES AND CENTRAL MONTANA

CITY           SKY/WX    TMP DP  RH WIND       PRES   REMARKS
CUT BANK       CLOUDY    58  38  47 W6        29.89R
GREAT FALLS    MOCLDY    55  39  54 CALM      29.90S
MALMSTROM AFB  CLOUDY    50  42  74 S7        29.89S
HELENA         PTCLDY    57  34  41 CALM      29.91F
CHOTEAU          N/A     57  34  41 CALM      29.90F
$$

MTZ011-013-016-021-045-047-050-051-050900-
NORTH CENTRAL MONTANA

CITY           SKY/WX    TMP DP  RH WIND       PRES   REMARKS
HAVRE          PTCLDY    50  43  77 SW5       29.83S
LEWISTOWN      PTCLDY    52  33  48 S8        29.93S
N BAR RANCH      N/A     54  34  47 CALM      29.96S
$$

MTZ017>020-022>027-061-062-050900-
NORTHEAST MONTANA

CITY           SKY/WX    TMP DP  RH WIND       PRES   REMARKS
GLASGOW        CLOUDY    59  39  47 E13       29.82S
JORDAN           N/A     49  43  80 CALM      29.84F
SIDNEY         CLEAR     52  39  62 CALM      29.87F
WOLF POINT     CLOUDY    51  43  74 N5        29.83F
POPLAR           N/A     52  43  71 N5        29.84F
SCOBEY           N/A     47  31  54 CALM      29.84F
$$

MTZ028>42-056>058-050900-
SOUTHCENTRAL AND SOUTHEAST MONTANA

CITY           SKY/WX    TMP DP  RH WIND       PRES   REMARKS
BAKER          CLEAR     56  41  57 S12       29.93F
BILLINGS       CLOUDY    60  37  42 SW13      29.92R
LIVINGSTON     CLOUDY    48  34  58 NW6       29.97S
MILES CITY     CLEAR     61  43  51 SE13      29.88S
FORSYTH          N/A     59  43  55 CALM      29.86F
LAUREL           N/A     54  36  50 W2        29.91S
ROUNDUP          N/A     57  34  42 W5        29.83S
$$

REGIONAL REPORTS...DAKOTAS

CITY           SKY/WX    TMP DP  RH WIND       PRES   REMARKS
WILLISTON      CLEAR     52  41  66 CALM      29.86S
MINOT          CLEAR     66  41  40 SW14      29.85S
DICKINSON      CLEAR     55  42  61 S16       29.92S
BEACH            N/A     55  41  58 SE14      29.94F
CROSBY           N/A     57  41  54 S15       29.85S
TIOGA            N/A     59  39  47 SW13      29.92S
WATFORD CITY     N/A     57  41  54 S7        29.88S
BISMARCK       CLEAR     61  45  55 SW7       29.93F
GRAND FORKS    PTCLDY    53  32  44 S9        29.85F
FARGO          PTCLDY    54  30  40 S10       29.91F
BUFFALO SD       N/A     55  43  63 SE13      29.90F
RAPID CITY     CLEAR     48  42  80 SE8       30.00F
$$

REGIONAL REPORTS...WYOMING/IDAHO/WASHINGTON

CITY           SKY/WX    TMP DP  RH WIND       PRES   REMARKS
GILLETTE       CLOUDY    55  41  59 S16       29.98F
SHERIDAN       CLOUDY    49  38  65 S3        29.95F
BUFFALO WY     CLOUDY    61  27  27 W7        30.01F
CODY           CLOUDY    57  28  33 SW12      30.00F
YELLOWSTONE LA   N/A     35  29  78 CALM      30.21R
IDAHO FALLS    CLOUDY    49  37  63 N5        30.00F
SALMON         CLOUDY    52  36  54 CALM      29.92S
BOISE          MOCLDY    66  43  43 NE8       29.82F
SPOKANE        CLOUDY    56  51  84 CALM      29.89F
$$

REGIONAL REPORTS...ALBERTA

CITY           SKY/WX    TMP DP  RH WIND       PRES   REMARKS
EDMONTON       CLOUDY    57  30  35 N12       29.84R
CALGARY        MOCLDY    63  39  42 N14       29.85R
LETHBRIDGE     CLOUDY    57  41  54 SW12      29.83S
MEDICINE HAT   CLEAR     57  39  51 SW7       29.79S
WATERTON GATE    N/A     54  39  58 S10         N/A
CARDSTON         N/A     55  39  54 S2          N/A
MILK RIVER       N/A     50  41  71 W3          N/A
ONEFOUR          N/A     52  39  62 N12         N/A
$$

REGIONAL REPORTS...SASKATCHEWAN

CITY           SKY/WX    TMP DP  RH WIND       PRES   REMARKS
SWIFT CURRENT  CLEAR     59  37  44 S15       29.79S
REGINA         CLEAR     54  36  50 SW6       29.77F
SASKATOON      MOCLDY    61  39  44 SW6       29.73S
CYPRESS HILLS    N/A     57  32  38 W2          N/A
VAL MARIE        N/A     46  37  71 E3          N/A
ROCKGLEN         N/A     59  36  41 S7          N/A
ASSINIBOIA       N/A     61  37  41 N13         N/A
$$



USA.gov is the U.S. government's official web portal to all federal, state and local government web resources and services.